Date String (YYYY-MM-DD hh:mm:ss) UTC,Instrument flags,absolute air pressure of the measurement (hPa),sample flow rate (lpm),inlet stack bypass flow (lpm),air temperature of the measurement (°C),ambient temperature measured by the external sensor (°C),aerosol sample conditioner tube jacket temperature (°C),OPC LED temperature (°C),internal box temperature (°C),relative humidity of the measurement (%),span deviation,mass concentration of particles derived from Lorenz-Mie calculation of OPC scattering (μg/m³),mass concentration of particles derived from Lorenz-Mie calculation of OPC scattering (μg/m³),mass concentration of particles derived from Lorenz-Mie calculation of OPC scattering (μg/m³)
DateTimeUTC,F1_M11,P_M11,Q1_M11,Q2_M11,T1_M11,T2_M11,T3_M11,T4_M11,T5_M11,U1_M11,ZSPAN_M11,X2_M11,X0_M11,X1_M11
2024-02-22 00:00:00,SystemResetWarning,0822.9,5.01,000.00,025.8,025.2,000.0,034.0,027.7,06.9,0000.0,0001.28,0006.15,0000.62
2024-02-22 00:01:00,SystemResetWarning,0822.9,5.01,000.00,025.8,025.3,000.0,034.0,027.7,06.7,0000.0,0001.28,0005.62,0000.63
2024-02-22 00:02:00,SystemResetWarning,0823.0,5.01,000.00,025.8,025.3,000.0,034.0,027.7,06.7,0000.0,0001.20,0004.81,0000.62
2024-02-22 00:03:00,SystemResetWarning,0822.9,5.00,000.00,025.8,025.3,000.0,034.1,027.7,06.8,0000.0,0001.20,0004.83,0000.63
2024-02-22 00:04:00,SystemResetWarning,0822.9,5.00,000.00,025.9,025.3,000.0,034.1,027.8,06.8,0000.0,0001.23,0004.89,0000.63
2024-02-22 00:05:00,SystemResetWarning,0822.4,5.00,000.00,025.9,025.3,000.0,034.1,027.8,06.7,0000.0,0001.23,0004.88,0000.63
2024-02-22 00:06:00,SystemResetWarning,0822.6,4.99,000.00,025.9,025.4,000.0,034.1,027.8,06.6,0000.0,0001.25,0004.97,0000.64
2024-02-22 00:07:00,SystemResetWarning,0822.5,5.01,000.00,025.9,025.4,000.0,034.2,027.8,06.7,0000.0,0001.29,0004.44,0000.65
2024-02-22 00:08:00,SystemResetWarning,0822.4,5.00,000.00,026.0,025.4,000.0,034.2,027.9,06.8,0000.0,0001.29,0004.48,0000.65
2024-02-22 00:09:00,SystemResetWarning,0822.4,5.00,000.00,026.0,025.4,000.0,034.2,027.9,06.7,0000.0,0001.26,0004.46,0000.65
2024-02-22 00:10:00,SystemResetWarning,0822.4,5.00,000.00,026.0,025.4,000.0,034.2,027.9,07.0,0000.0,0001.21,0004.55,0000.65
2024-02-22 00:11:00,SystemResetWarning,0822.0,4.99,000.00,026.0,025.4,000.0,034.3,027.9,07.0,0000.0,0001.19,0004.11,0000.64
2024-02-22 00:12:00,SystemResetWarning,0822.1,5.00,000.00,026.0,025.4,000.0,034.3,027.9,06.7,0000.0,0001.16,0003.14,0000.63
2024-02-22 00:13:00,SystemResetWarning,0822.2,5.00,000.00,026.0,025.4,000.0,034.3,027.9,06.8,0000.0,0001.19,0003.20,0000.64
2024-02-22 00:14:00,SystemResetWarning,0822.3,5.01,000.00,026.1,025.4,000.0,034.3,027.9,06.9,0000.0,0001.17,0003.42,0000.64
2024-02-22 00:15:00,SystemResetWarning,0822.3,5.00,000.00,026.1,025.4,000.0,034.3,027.9,06.6,0000.0,0001.15,0003.52,0000.64
2024-02-22 00:16:00,SystemResetWarning,0822.2,5.00,000.00,026.1,025.3,000.0,034.4,027.9,06.9,0000.0,0001.17,0003.70,0000.65
2024-02-22 00:17:00,SystemResetWarning,0822.1,4.99,000.00,026.1,025.3,000.0,034.4,027.9,06.9,0000.0,0001.17,0003.67,0000.64
2024-02-22 00:18:00,SystemResetWarning,0822.1,4.99,000.00,026.1,025.3,000.0,034.4,027.9,07.0,0000.0,0001.17,0003.50,0000.64
2024-02-22 00:19:00,SystemResetWarning,0822.1,4.99,000.00,026.1,025.3,000.0,034.4,027.9,07.1,0000.0,0001.20,0003.49,0000.65
2024-02-22 00:20:00,SystemResetWarning,0822.1,5.00,000.00,026.1,025.3,000.0,034.4,027.9,06.8,0000.0,0001.21,0003.29,0000.66
2024-02-22 00:21:00,SystemResetWarning,0822.2,5.00,000.00,026.1,025.3,000.0,034.4,027.9,06.8,0000.0,0001.24,0003.85,0000.67
2024-02-22 00:22:00,SystemResetWarning,0822.1,5.00,000.00,026.1,025.3,000.0,034.4,027.9,07.0,0000.0,0001.28,0004.40,0000.67
2024-02-22 00:23:00,SystemResetWarning,0822.1,5.01,000.00,026.1,025.3,000.0,034.4,027.9,07.0,0000.0,0001.34,0004.68,0000.68
2024-02-22 00:24:00,SystemResetWarning,0822.1,5.00,000.00,026.1,025.3,000.0,034.4,027.9,06.9,0000.0,0001.35,0004.82,0000.69
2024-02-22 00:25:00,SystemResetWarning,0822.2,5.00,000.00,026.1,025.2,000.0,034.4,027.9,06.9,0000.0,0001.36,0004.59,0000.69
2024-02-22 00:26:00,SystemResetWarning,0822.4,5.00,000.00,026.1,025.3,000.0,034.4,027.9,06.7,0000.0,0001.34,0004.40,0000.70
2024-02-22 00:27:00,SystemResetWarning,0822.3,4.99,000.00,026.1,025.3,000.0,034.4,027.9,06.6,0000.0,0001.35,0004.64,0000.70
2024-02-22 00:28:00,SystemResetWarning,0822.1,5.00,000.00,026.1,025.3,000.0,034.4,027.9,06.9,0000.0,0001.34,0005.13,0000.71
2024-02-22 00:29:00,SystemResetWarning,0822.1,5.00,000.00,026.1,025.3,000.0,034.4,027.9,06.9,0000.0,0001.30,0005.25,0000.72
2024-02-22 00:30:00,SystemResetWarning,0822.0,5.00,000.00,026.1,025.2,000.0,034.4,027.9,07.1,0000.0,0001.28,0005.61,0000.71
2024-02-22 00:31:00,SystemResetWarning,0822.0,5.00,000.00,026.1,025.2,000.0,034.5,027.9,06.9,0000.0,0001.27,0006.98,0000.71
2024-02-22 00:32:00,SystemResetWarning,0822.1,5.00,000.00,026.1,025.2,000.0,034.5,027.9,07.1,0000.0,0001.30,0006.16,0000.71
2024-02-22 00:33:00,SystemResetWarning,0822.2,5.01,000.00,026.1,025.2,000.0,034.5,027.9,07.1,0000.0,0001.26,0005.64,0000.71
2024-02-22 00:34:00,SystemResetWarning,0822.3,5.00,000.00,026.1,025.2,000.0,034.4,027.9,07.1,0000.0,0001.28,0006.26,0000.71
2024-02-22 00:35:00,SystemResetWarning,0822.3,5.00,000.00,026.1,025.2,000.0,034.4,027.9,07.1,0000.0,0001.30,0006.45,0000.71
2024-02-22 00:36:00,SystemResetWarning,0822.3,5.00,000.00,026.1,025.2,000.0,034.4,027.9,07.0,0000.0,0001.29,0006.40,0000.71
2024-02-22 00:37:00,SystemResetWarning,0822.3,5.00,000.00,026.1,025.2,000.0,034.4,027.9,07.1,0000.0,0001.34,0006.54,0000.71
2024-02-22 00:38:00,SystemResetWarning,0822.1,5.00,000.00,026.1,025.1,000.0,034.5,027.9,07.2,0000.0,0001.35,0006.28,0000.72
2024-02-22 00:39:00,SystemResetWarning,0822.2,5.01,000.00,026.1,025.1,000.0,034.5,027.9,07.1,0000.0,0001.42,0006.59,0000.72
2024-02-22 00:40:00,SystemResetWarning,0822.4,5.01,000.00,026.1,025.1,000.0,034.4,027.8,06.8,0000.0,0001.52,0006.84,0000.72
2024-02-22 00:41:00,SystemResetWarning,0822.3,5.00,000.00,026.1,025.1,000.0,034.4,027.8,06.9,0000.0,0001.56,0007.43,0000.72
2024-02-22 00:42:00,SystemResetWarning,0822.2,5.00,000.00,026.1,025.1,000.0,034.4,027.8,07.1,0000.0,0001.61,0006.77,0000.73
2024-02-22 00:43:00,SystemResetWarning,0822.1,4.99,000.00,026.1,025.1,000.0,034.4,027.8,07.2,0000.0,0001.58,0007.68,0000.74
2024-02-22 00:44:00,SystemResetWarning,0822.0,4.99,000.00,026.1,025.1,000.0,034.4,027.8,07.3,0000.0,0001.59,0007.73,0000.74
2024-02-22 00:45:00,SystemResetWarning,0822.0,5.00,000.00,026.0,025.1,000.0,034.4,027.8,07.1,0000.0,0001.52,0007.50,0000.74
2024-02-22 00:46:00,SystemResetWarning,0822.0,5.00,000.00,026.0,025.1,000.0,034.4,027.8,07.1,0000.0,0001.56,0007.59,0000.74
2024-02-22 00:47:00,SystemResetWarning,0822.0,5.00,000.00,026.0,025.1,000.0,034.4,027.8,07.3,0000.0,0001.62,0007.73,0000.74
2024-02-22 00:48:00,SystemResetWarning,0822.0,5.00,000.00,026.0,025.1,000.0,034.4,027.8,07.3,0000.0,0001.61,0007.81,0000.73
2024-02-22 00:49:00,SystemResetWarning,0821.9,4.99,000.00,026.0,025.1,000.0,034.4,027.8,07.4,0000.0,0001.58,0007.78,0000.72
2024-02-22 00:50:00,SystemResetWarning,0822.0,4.99,000.00,026.0,025.1,000.0,034.4,027.8,07.2,0000.0,0001.50,0007.37,0000.71
2024-02-22 00:51:00,SystemResetWarning,0822.0,5.01,000.00,026.0,025.0,000.0,034.4,027.7,07.1,0000.0,0001.43,0007.07,0000.70
2024-02-22 00:52:00,SystemResetWarning,0822.1,5.00,000.00,026.0,025.0,000.0,034.4,027.8,07.1,0000.0,0001.40,0006.40,0000.70
2024-02-22 00:53:00,SystemResetWarning,0822.1,5.01,000.00,026.0,025.0,000.0,034.4,027.7,07.4,0000.0,0001.36,0005.52,0000.68
2024-02-22 00:54:00,SystemResetWarning,0822.1,5.00,000.00,026.0,025.0,000.0,034.3,027.7,07.4,0000.0,0001.42,0005.31,0000.67
2024-02-22 00:55:00,SystemResetWarning,0822.1,5.00,000.00,026.0,025.0,000.0,034.3,027.7,07.3,0000.0,0001.46,0005.14,0000.67
2024-02-22 00:56:00,SystemResetWarning,0822.1,5.00,000.00,026.0,025.0,000.0,034.3,027.7,07.4,0000.0,0001.51,0005.04,0000.67
2024-02-22 00:57:00,SystemResetWarning,0822.0,5.00,000.00,025.9,025.0,000.0,034.3,027.7,07.5,0000.0,0001.44,0004.26,0000.67
2024-02-22 00:58:00,SystemResetWarning,0822.0,5.00,000.00,025.9,024.9,000.0,034.3,027.7,07.4,0000.0,0001.40,0004.04,0000.67
2024-02-22 00:59:00,SystemResetWarning,0822.1,5.00,000.00,025.9,024.9,000.0,034.3,027.7,07.4,0000.0,0001.45,0003.96,0000.68
